owner,sensor,date,latitude,longitude,air_pressure(mBar),qcFlag 
WAVCIS,ioos:station:WAVCIS:CSI03:1,2009-04-01T00:00:00Z,29.4412,-92.0613,1006.188,11111222 
WAVCIS,ioos:station:WAVCIS:CSI03:1,2009-04-01T01:00:00Z,29.4412,-92.0613,1006.938,11111222 
WAVCIS,ioos:station:WAVCIS:CSI03:1,2009-04-01T02:00:00Z,29.4412,-92.0613,1008.03,11111222 
WAVCIS,ioos:station:WAVCIS:CSI03:1,2009-04-01T03:00:00Z,29.4412,-92.0613,1008.54,11111222 
WAVCIS,ioos:station:WAVCIS:CSI03:1,2009-04-01T04:00:00Z,29.4412,-92.0613,1008.7,11111222 
WAVCIS,ioos:station:WAVCIS:CSI03:1,2009-04-01T05:00:00Z,29.4412,-92.0613,1008.45,11111222 
WAVCIS,ioos:station:WAVCIS:CSI03:1,2009-04-01T06:00:00Z,29.4412,-92.0613,1008.71,11111222 
WAVCIS,ioos:station:WAVCIS:CSI03:1,2009-04-01T07:00:00Z,29.4412,-92.0613,1008.76,11111222 
WAVCIS,ioos:station:WAVCIS:CSI03:1,2009-04-01T08:00:00Z,29.4412,-92.0613,1008.88,11111222 
WAVCIS,ioos:station:WAVCIS:CSI03:1,2009-04-01T09:00:00Z,29.4412,-92.0613,1008.73,11111222 
WAVCIS,ioos:station:WAVCIS:CSI03:1,2009-04-01T10:00:00Z,29.4412,-92.0613,1008.75,11111222 
WAVCIS,ioos:station:WAVCIS:CSI03:1,2009-04-01T11:00:00Z,29.4412,-92.0613,1009.08,11111222 
WAVCIS,ioos:station:WAVCIS:CSI03:1,2009-04-01T12:00:00Z,29.4412,-92.0613,1009.51,11111222 
WAVCIS,ioos:station:WAVCIS:CSI03:1,2009-04-01T13:00:00Z,29.4412,-92.0613,1009.05,11111222 
WAVCIS,ioos:station:WAVCIS:CSI03:1,2009-04-01T14:00:00Z,29.4412,-92.0613,1009.49,11111222 
WAVCIS,ioos:station:WAVCIS:CSI03:1,2009-04-01T15:00:00Z,29.4412,-92.0613,1009.12,11111222 
WAVCIS,ioos:station:WAVCIS:CSI03:1,2009-04-01T16:00:00Z,29.4412,-92.0613,1009.35,11111222 
WAVCIS,ioos:station:WAVCIS:CSI03:1,2009-04-01T17:00:00Z,29.4412,-92.0613,1009.0,11111222 
WAVCIS,ioos:station:WAVCIS:CSI03:1,2009-04-01T18:00:00Z,29.4412,-92.0613,1008.67,11111222 
WAVCIS,ioos:station:WAVCIS:CSI03:1,2009-04-01T19:00:00Z,29.4412,-92.0613,1007.95,11111222 
WAVCIS,ioos:station:WAVCIS:CSI03:1,2009-04-01T20:00:00Z,29.4412,-92.0613,1007.17,11111222 
WAVCIS,ioos:station:WAVCIS:CSI03:1,2009-04-01T21:00:00Z,29.4412,-92.0613,1006.125,11111222 
WAVCIS,ioos:station:WAVCIS:CSI03:1,2009-04-01T22:00:00Z,29.4412,-92.0613,1005.255,11111222 
WAVCIS,ioos:station:WAVCIS:CSI03:1,2009-04-01T23:00:00Z,29.4412,-92.0613,1005.017,11111222 
WAVCIS,ioos:station:WAVCIS:CSI03:1,2009-04-02T00:00:00Z,29.4412,-92.0613,1001.573,11111222 
WAVCIS,ioos:station:WAVCIS:CSI03:1,2009-04-02T01:00:00Z,29.4412,-92.0613,1003.532,11111222 
WAVCIS,ioos:station:WAVCIS:CSI03:1,2009-04-02T02:00:00Z,29.4412,-92.0613,1003.304,11111222 
WAVCIS,ioos:station:WAVCIS:CSI03:1,2009-04-02T03:00:00Z,29.4412,-92.0613,1003.783,11111222 
WAVCIS,ioos:station:WAVCIS:CSI03:1,2009-04-02T04:00:00Z,29.4412,-92.0613,1003.35,11111222 
WAVCIS,ioos:station:WAVCIS:CSI03:1,2009-04-02T05:00:00Z,29.4412,-92.0613,1002.995,11111222 
WAVCIS,ioos:station:WAVCIS:CSI03:1,2009-04-02T06:00:00Z,29.4412,-92.0613,1002.275,11111222 
WAVCIS,ioos:station:WAVCIS:CSI03:1,2009-04-02T07:00:00Z,29.4412,-92.0613,1001.911,11111222 
WAVCIS,ioos:station:WAVCIS:CSI03:1,2009-04-02T08:00:00Z,29.4412,-92.0613,1002.707,11111222 
WAVCIS,ioos:station:WAVCIS:CSI03:1,2009-04-02T09:00:00Z,29.4412,-92.0613,997.885,11111222 
WAVCIS,ioos:station:WAVCIS:CSI03:1,2009-04-02T10:00:00Z,29.4412,-92.0613,997.745,11111222 
WAVCIS,ioos:station:WAVCIS:CSI03:1,2009-04-02T11:00:00Z,29.4412,-92.0613,997.772,11111222 
WAVCIS,ioos:station:WAVCIS:CSI03:1,2009-04-02T12:00:00Z,29.4412,-92.0613,996.713,11111222 
WAVCIS,ioos:station:WAVCIS:CSI03:1,2009-04-02T13:00:00Z,29.4412,-92.0613,995.708,11111222 
WAVCIS,ioos:station:WAVCIS:CSI03:1,2009-04-02T14:00:00Z,29.4412,-92.0613,994.616,11111222 
WAVCIS,ioos:station:WAVCIS:CSI03:1,2009-04-02T15:00:00Z,29.4412,-92.0613,994.584,11111222 
WAVCIS,ioos:station:WAVCIS:CSI03:1,2009-04-02T16:00:00Z,29.4412,-92.0613,999.428,11111222 
WAVCIS,ioos:station:WAVCIS:CSI03:1,2009-04-02T17:00:00Z,29.4412,-92.0613,1000.351,11111222 
WAVCIS,ioos:station:WAVCIS:CSI03:1,2009-04-02T18:00:00Z,29.4412,-92.0613,999.887,11111222 
WAVCIS,ioos:station:WAVCIS:CSI03:1,2009-04-02T19:00:00Z,29.4412,-92.0613,999.173,11111222 
WAVCIS,ioos:station:WAVCIS:CSI03:1,2009-04-02T20:00:00Z,29.4412,-92.0613,998.682,11111222 
WAVCIS,ioos:station:WAVCIS:CSI03:1,2009-04-02T21:00:00Z,29.4412,-92.0613,998.433,11111222 
WAVCIS,ioos:station:WAVCIS:CSI03:1,2009-04-02T22:00:00Z,29.4412,-92.0613,998.472,11111222 
WAVCIS,ioos:station:WAVCIS:CSI03:1,2009-04-02T23:00:00Z,29.4412,-92.0613,998.704,11111222 
WAVCIS,ioos:station:WAVCIS:CSI03:1,2009-04-03T00:00:00Z,29.4412,-92.0613,999.344,11111222 
WAVCIS,ioos:station:WAVCIS:CSI03:1,2009-04-03T01:00:00Z,29.4412,-92.0613,1000.518,11111222 
WAVCIS,ioos:station:WAVCIS:CSI03:1,2009-04-03T02:00:00Z,29.4412,-92.0613,1001.941,11111222 
WAVCIS,ioos:station:WAVCIS:CSI03:1,2009-04-03T03:00:00Z,29.4412,-92.0613,1003.363,11111222 
WAVCIS,ioos:station:WAVCIS:CSI03:1,2009-04-03T04:00:00Z,29.4412,-92.0613,1004.507,11111222 
WAVCIS,ioos:station:WAVCIS:CSI03:1,2009-04-03T05:00:00Z,29.4412,-92.0613,1005.127,11111222 
WAVCIS,ioos:station:WAVCIS:CSI03:1,2009-04-03T06:00:00Z,29.4412,-92.0613,1005.808,11111222 
WAVCIS,ioos:station:WAVCIS:CSI03:1,2009-04-03T07:00:00Z,29.4412,-92.0613,1006.032,11111222 
WAVCIS,ioos:station:WAVCIS:CSI03:1,2009-04-03T08:00:00Z,29.4412,-92.0613,1005.994,11111222 
WAVCIS,ioos:station:WAVCIS:CSI03:1,2009-04-03T09:00:00Z,29.4412,-92.0613,1006.015,11111222 
WAVCIS,ioos:station:WAVCIS:CSI03:1,2009-04-03T10:00:00Z,29.4412,-92.0613,1006.288,11111222 
WAVCIS,ioos:station:WAVCIS:CSI03:1,2009-04-03T11:00:00Z,29.4412,-92.0613,1007.04,11111222 
WAVCIS,ioos:station:WAVCIS:CSI03:1,2009-04-03T12:00:00Z,29.4412,-92.0613,1007.82,11111222 
WAVCIS,ioos:station:WAVCIS:CSI03:1,2009-04-03T13:00:00Z,29.4412,-92.0613,1008.42,11111222 
WAVCIS,ioos:station:WAVCIS:CSI03:1,2009-04-03T14:00:00Z,29.4412,-92.0613,1008.77,11111222 
WAVCIS,ioos:station:WAVCIS:CSI03:1,2009-04-03T15:00:00Z,29.4412,-92.0613,1009.51,11111222 
WAVCIS,ioos:station:WAVCIS:CSI03:1,2009-04-03T16:00:00Z,29.4412,-92.0613,1010.13,11111222 
WAVCIS,ioos:station:WAVCIS:CSI03:1,2009-04-03T17:00:00Z,29.4412,-92.0613,1010.46,11111222 
WAVCIS,ioos:station:WAVCIS:CSI03:1,2009-04-03T18:00:00Z,29.4412,-92.0613,1010.48,11111222 
WAVCIS,ioos:station:WAVCIS:CSI03:1,2009-04-03T19:00:00Z,29.4412,-92.0613,1010.11,11111222 
WAVCIS,ioos:station:WAVCIS:CSI03:1,2009-04-03T20:00:00Z,29.4412,-92.0613,1009.69,11111222 
WAVCIS,ioos:station:WAVCIS:CSI03:1,2009-04-03T21:00:00Z,29.4412,-92.0613,1008.99,11111222 
WAVCIS,ioos:station:WAVCIS:CSI03:1,2009-04-03T22:00:00Z,29.4412,-92.0613,1008.5,11111222 
WAVCIS,ioos:station:WAVCIS:CSI03:1,2009-04-03T23:00:00Z,29.4412,-92.0613,1008.9,11111222 
WAVCIS,ioos:station:WAVCIS:CSI03:1,2009-04-04T00:00:00Z,29.4412,-92.0613,1009.15,11111222 
WAVCIS,ioos:station:WAVCIS:CSI03:1,2009-04-04T01:00:00Z,29.4412,-92.0613,1009.3,11111222 
WAVCIS,ioos:station:WAVCIS:CSI03:1,2009-04-04T02:00:00Z,29.4412,-92.0613,1009.25,11111222 
WAVCIS,ioos:station:WAVCIS:CSI03:1,2009-04-04T03:00:00Z,29.4412,-92.0613,1009.55,11111222 
WAVCIS,ioos:station:WAVCIS:CSI03:1,2009-04-04T04:00:00Z,29.4412,-92.0613,1009.32,11111222 
WAVCIS,ioos:station:WAVCIS:CSI03:1,2009-04-04T05:00:00Z,29.4412,-92.0613,1009.75,11111222 
WAVCIS,ioos:station:WAVCIS:CSI03:1,2009-04-04T06:00:00Z,29.4412,-92.0613,1009.76,11111222 
WAVCIS,ioos:station:WAVCIS:CSI03:1,2009-04-04T07:00:00Z,29.4412,-92.0613,1009.0,11111222 
WAVCIS,ioos:station:WAVCIS:CSI03:1,2009-04-04T08:00:00Z,29.4412,-92.0613,1008.71,11111222 
WAVCIS,ioos:station:WAVCIS:CSI03:1,2009-04-04T09:00:00Z,29.4412,-92.0613,1008.23,11111222 
WAVCIS,ioos:station:WAVCIS:CSI03:1,2009-04-04T10:00:00Z,29.4412,-92.0613,1008.33,11111222 
WAVCIS,ioos:station:WAVCIS:CSI03:1,2009-04-04T11:00:00Z,29.4412,-92.0613,1009.02,11111222 
WAVCIS,ioos:station:WAVCIS:CSI03:1,2009-04-04T12:00:00Z,29.4412,-92.0613,1009.28,11111222 
WAVCIS,ioos:station:WAVCIS:CSI03:1,2009-04-04T13:00:00Z,29.4412,-92.0613,1009.82,11111222 
WAVCIS,ioos:station:WAVCIS:CSI03:1,2009-04-04T14:00:00Z,29.4412,-92.0613,1010.15,11111222 
WAVCIS,ioos:station:WAVCIS:CSI03:1,2009-04-04T15:00:00Z,29.4412,-92.0613,1010.27,11111222 
WAVCIS,ioos:station:WAVCIS:CSI03:1,2009-04-04T16:00:00Z,29.4412,-92.0613,1010.58,11111222 
WAVCIS,ioos:station:WAVCIS:CSI03:1,2009-04-04T17:00:00Z,29.4412,-92.0613,1010.05,11111222 
WAVCIS,ioos:station:WAVCIS:CSI03:1,2009-04-04T18:00:00Z,29.4412,-92.0613,1009.76,11111222 
WAVCIS,ioos:station:WAVCIS:CSI03:1,2009-04-04T19:00:00Z,29.4412,-92.0613,1009.39,11111222 
WAVCIS,ioos:station:WAVCIS:CSI03:1,2009-04-04T20:00:00Z,29.4412,-92.0613,1009.0,11111222 
WAVCIS,ioos:station:WAVCIS:CSI03:1,2009-04-04T21:00:00Z,29.4412,-92.0613,1008.28,11111222 
WAVCIS,ioos:station:WAVCIS:CSI03:1,2009-04-04T22:00:00Z,29.4412,-92.0613,1007.92,11111222 
WAVCIS,ioos:station:WAVCIS:CSI03:1,2009-04-04T23:00:00Z,29.4412,-92.0613,1007.52,11111222 
WAVCIS,ioos:station:WAVCIS:CSI03:1,2009-04-05T00:00:00Z,29.4412,-92.0613,1007.95,11111222 
WAVCIS,ioos:station:WAVCIS:CSI03:1,2009-04-05T01:00:00Z,29.4412,-92.0613,1007.81,11111222 
WAVCIS,ioos:station:WAVCIS:CSI03:1,2009-04-05T02:00:00Z,29.4412,-92.0613,1007.85,11111222 
WAVCIS,ioos:station:WAVCIS:CSI03:1,2009-04-05T03:00:00Z,29.4412,-92.0613,1007.87,11111222 
WAVCIS,ioos:station:WAVCIS:CSI03:1,2009-04-05T04:00:00Z,29.4412,-92.0613,1007.52,11111222 
WAVCIS,ioos:station:WAVCIS:CSI03:1,2009-04-05T05:00:00Z,29.4412,-92.0613,1006.859,11111222 
WAVCIS,ioos:station:WAVCIS:CSI03:1,2009-04-05T06:00:00Z,29.4412,-92.0613,1006.703,11111222 
WAVCIS,ioos:station:WAVCIS:CSI03:1,2009-04-05T07:00:00Z,29.4412,-92.0613,1006.469,11111222 
WAVCIS,ioos:station:WAVCIS:CSI03:1,2009-04-05T08:00:00Z,29.4412,-92.0613,1006.027,11111222 
WAVCIS,ioos:station:WAVCIS:CSI03:1,2009-04-05T09:00:00Z,29.4412,-92.0613,1006.055,11111222 
WAVCIS,ioos:station:WAVCIS:CSI03:1,2009-04-05T10:00:00Z,29.4412,-92.0613,1006.009,11111222 
WAVCIS,ioos:station:WAVCIS:CSI03:1,2009-04-05T11:00:00Z,29.4412,-92.0613,1006.255,11111222 
WAVCIS,ioos:station:WAVCIS:CSI03:1,2009-04-05T12:00:00Z,29.4412,-92.0613,1006.574,11111222 
WAVCIS,ioos:station:WAVCIS:CSI03:1,2009-04-05T13:00:00Z,29.4412,-92.0613,1006.911,11111222 
WAVCIS,ioos:station:WAVCIS:CSI03:1,2009-04-05T14:00:00Z,29.4412,-92.0613,1008.09,11111222 
WAVCIS,ioos:station:WAVCIS:CSI03:1,2009-04-05T15:00:00Z,29.4412,-92.0613,1009.25,11111222 
WAVCIS,ioos:station:WAVCIS:CSI03:1,2009-04-05T16:00:00Z,29.4412,-92.0613,1009.9,11111222 
WAVCIS,ioos:station:WAVCIS:CSI03:1,2009-04-05T17:00:00Z,29.4412,-92.0613,1009.53,11111222 
WAVCIS,ioos:station:WAVCIS:CSI03:1,2009-04-05T18:00:00Z,29.4412,-92.0613,1009.52,11111222 
WAVCIS,ioos:station:WAVCIS:CSI03:1,2009-04-05T19:00:00Z,29.4412,-92.0613,1008.83,11111222 
WAVCIS,ioos:station:WAVCIS:CSI03:1,2009-04-05T20:00:00Z,29.4412,-92.0613,1008.16,11111222 
WAVCIS,ioos:station:WAVCIS:CSI03:1,2009-04-05T21:00:00Z,29.4412,-92.0613,1007.69,11111222 
WAVCIS,ioos:station:WAVCIS:CSI03:1,2009-04-05T22:00:00Z,29.4412,-92.0613,1007.64,11111222 
WAVCIS,ioos:station:WAVCIS:CSI03:1,2009-04-05T23:00:00Z,29.4412,-92.0613,1008.03,11111222 
WAVCIS,ioos:station:WAVCIS:CSI03:1,2009-04-06T00:00:00Z,29.4412,-92.0613,1008.3,11111222 
WAVCIS,ioos:station:WAVCIS:CSI03:1,2009-04-06T01:00:00Z,29.4412,-92.0613,1009.33,11111222 
WAVCIS,ioos:station:WAVCIS:CSI03:1,2009-04-06T02:00:00Z,29.4412,-92.0613,1010.68,11111222 
WAVCIS,ioos:station:WAVCIS:CSI03:1,2009-04-06T03:00:00Z,29.4412,-92.0613,1012.12,11111222 
WAVCIS,ioos:station:WAVCIS:CSI03:1,2009-04-06T04:00:00Z,29.4412,-92.0613,1013.18,11111222 
WAVCIS,ioos:station:WAVCIS:CSI03:1,2009-04-06T05:00:00Z,29.4412,-92.0613,1014.15,11111222 
WAVCIS,ioos:station:WAVCIS:CSI03:1,2009-04-06T06:00:00Z,29.4412,-92.0613,1014.89,11111222 
WAVCIS,ioos:station:WAVCIS:CSI03:1,2009-04-06T07:00:00Z,29.4412,-92.0613,1015.46,11111222 
WAVCIS,ioos:station:WAVCIS:CSI03:1,2009-04-06T08:00:00Z,29.4412,-92.0613,1015.36,11111222 
WAVCIS,ioos:station:WAVCIS:CSI03:1,2009-04-06T09:00:00Z,29.4412,-92.0613,1015.5,11111222 
WAVCIS,ioos:station:WAVCIS:CSI03:1,2009-04-06T10:00:00Z,29.4412,-92.0613,1015.98,11111222 
WAVCIS,ioos:station:WAVCIS:CSI03:1,2009-04-06T11:00:00Z,29.4412,-92.0613,1016.93,11111222 
WAVCIS,ioos:station:WAVCIS:CSI03:1,2009-04-06T12:00:00Z,29.4412,-92.0613,1017.67,11111222 
WAVCIS,ioos:station:WAVCIS:CSI03:1,2009-04-06T13:00:00Z,29.4412,-92.0613,1018.86,11111222 
WAVCIS,ioos:station:WAVCIS:CSI03:1,2009-04-06T14:00:00Z,29.4412,-92.0613,1019.29,11111222 
WAVCIS,ioos:station:WAVCIS:CSI03:1,2009-04-06T15:00:00Z,29.4412,-92.0613,1019.88,11111222 
WAVCIS,ioos:station:WAVCIS:CSI03:1,2009-04-06T16:00:00Z,29.4412,-92.0613,1019.92,11111222 
WAVCIS,ioos:station:WAVCIS:CSI03:1,2009-04-06T17:00:00Z,29.4412,-92.0613,1019.82,11111222 
WAVCIS,ioos:station:WAVCIS:CSI03:1,2009-04-06T18:00:00Z,29.4412,-92.0613,1019.39,11111222 
WAVCIS,ioos:station:WAVCIS:CSI03:1,2009-04-06T19:00:00Z,29.4412,-92.0613,1018.58,11111222 
WAVCIS,ioos:station:WAVCIS:CSI03:1,2009-04-06T20:00:00Z,29.4412,-92.0613,1018.14,11111222 
WAVCIS,ioos:station:WAVCIS:CSI03:1,2009-04-06T21:00:00Z,29.4412,-92.0613,1017.96,11111222 
WAVCIS,ioos:station:WAVCIS:CSI03:1,2009-04-06T22:00:00Z,29.4412,-92.0613,1017.99,11111222 
WAVCIS,ioos:station:WAVCIS:CSI03:1,2009-04-06T23:00:00Z,29.4412,-92.0613,1017.43,11111222 
WAVCIS,ioos:station:WAVCIS:CSI03:1,2009-04-07T00:00:00Z,29.4412,-92.0613,1018.03,11111222 
WAVCIS,ioos:station:WAVCIS:CSI03:1,2009-04-07T01:00:00Z,29.4412,-92.0613,1018.81,11111222 
WAVCIS,ioos:station:WAVCIS:CSI03:1,2009-04-07T02:00:00Z,29.4412,-92.0613,1019.88,11111222 
WAVCIS,ioos:station:WAVCIS:CSI03:1,2009-04-07T03:00:00Z,29.4412,-92.0613,1021.04,11111222 
WAVCIS,ioos:station:WAVCIS:CSI03:1,2009-04-07T04:00:00Z,29.4412,-92.0613,1021.91,11111222 
WAVCIS,ioos:station:WAVCIS:CSI03:1,2009-04-07T05:00:00Z,29.4412,-92.0613,1022.31,11111222 
WAVCIS,ioos:station:WAVCIS:CSI03:1,2009-04-07T06:00:00Z,29.4412,-92.0613,1022.35,11111222 
WAVCIS,ioos:station:WAVCIS:CSI03:1,2009-04-07T07:00:00Z,29.4412,-92.0613,1022.44,11111222 
WAVCIS,ioos:station:WAVCIS:CSI03:1,2009-04-07T08:00:00Z,29.4412,-92.0613,1022.01,11111222 
WAVCIS,ioos:station:WAVCIS:CSI03:1,2009-04-07T09:00:00Z,29.4412,-92.0613,1022.01,11111222 
WAVCIS,ioos:station:WAVCIS:CSI03:1,2009-04-07T10:00:00Z,29.4412,-92.0613,1022.2,11111222 
WAVCIS,ioos:station:WAVCIS:CSI03:1,2009-04-07T11:00:00Z,29.4412,-92.0613,1022.42,11111222 
WAVCIS,ioos:station:WAVCIS:CSI03:1,2009-04-07T12:00:00Z,29.4412,-92.0613,1023.0,11111222 
WAVCIS,ioos:station:WAVCIS:CSI03:1,2009-04-07T13:00:00Z,29.4412,-92.0613,1023.67,11111222 
WAVCIS,ioos:station:WAVCIS:CSI03:1,2009-04-07T14:00:00Z,29.4412,-92.0613,1024.44,11111222 
WAVCIS,ioos:station:WAVCIS:CSI03:1,2009-04-07T15:00:00Z,29.4412,-92.0613,1024.18,11111222 
WAVCIS,ioos:station:WAVCIS:CSI03:1,2009-04-07T16:00:00Z,29.4412,-92.0613,1023.79,11111222 
WAVCIS,ioos:station:WAVCIS:CSI03:1,2009-04-07T17:00:00Z,29.4412,-92.0613,1023.51,11111222 
WAVCIS,ioos:station:WAVCIS:CSI03:1,2009-04-07T18:00:00Z,29.4412,-92.0613,1023.02,11111222 
WAVCIS,ioos:station:WAVCIS:CSI03:1,2009-04-07T19:00:00Z,29.4412,-92.0613,1022.41,11111222 
WAVCIS,ioos:station:WAVCIS:CSI03:1,2009-04-07T20:00:00Z,29.4412,-92.0613,1022.06,11111222 
WAVCIS,ioos:station:WAVCIS:CSI03:1,2009-04-07T21:00:00Z,29.4412,-92.0613,1020.94,11111222 
WAVCIS,ioos:station:WAVCIS:CSI03:1,2009-04-07T22:00:00Z,29.4412,-92.0613,1020.14,11111222 
WAVCIS,ioos:station:WAVCIS:CSI03:1,2009-04-07T23:00:00Z,29.4412,-92.0613,1019.75,11111222 
WAVCIS,ioos:station:WAVCIS:CSI03:1,2009-04-08T00:00:00Z,29.4412,-92.0613,1019.31,11111222 
WAVCIS,ioos:station:WAVCIS:CSI03:1,2009-04-08T01:00:00Z,29.4412,-92.0613,1019.02,11111222 
WAVCIS,ioos:station:WAVCIS:CSI03:1,2009-04-08T02:00:00Z,29.4412,-92.0613,1019.19,11111222 
WAVCIS,ioos:station:WAVCIS:CSI03:1,2009-04-08T03:00:00Z,29.4412,-92.0613,1019.4,11111222 
WAVCIS,ioos:station:WAVCIS:CSI03:1,2009-04-08T04:00:00Z,29.4412,-92.0613,1019.0,11111222 
WAVCIS,ioos:station:WAVCIS:CSI03:1,2009-04-08T05:00:00Z,29.4412,-92.0613,1018.72,11111222 
WAVCIS,ioos:station:WAVCIS:CSI03:1,2009-04-08T06:00:00Z,29.4412,-92.0613,1018.49,11111222 
WAVCIS,ioos:station:WAVCIS:CSI03:1,2009-04-08T07:00:00Z,29.4412,-92.0613,1018.0,11111222 
WAVCIS,ioos:station:WAVCIS:CSI03:1,2009-04-08T08:00:00Z,29.4412,-92.0613,1017.4,11111222 
WAVCIS,ioos:station:WAVCIS:CSI03:1,2009-04-08T09:00:00Z,29.4412,-92.0613,1016.81,11111222 
WAVCIS,ioos:station:WAVCIS:CSI03:1,2009-04-08T10:00:00Z,29.4412,-92.0613,1016.3,11111222 
WAVCIS,ioos:station:WAVCIS:CSI03:1,2009-04-08T11:00:00Z,29.4412,-92.0613,1016.33,11111222 
WAVCIS,ioos:station:WAVCIS:CSI03:1,2009-04-08T12:00:00Z,29.4412,-92.0613,1016.61,11111222 
WAVCIS,ioos:station:WAVCIS:CSI03:1,2009-04-08T13:00:00Z,29.4412,-92.0613,1017.29,11111222 
WAVCIS,ioos:station:WAVCIS:CSI03:1,2009-04-08T14:00:00Z,29.4412,-92.0613,1017.29,11111222 
WAVCIS,ioos:station:WAVCIS:CSI03:1,2009-04-08T15:00:00Z,29.4412,-92.0613,1017.84,11111222 
WAVCIS,ioos:station:WAVCIS:CSI03:1,2009-04-08T16:00:00Z,29.4412,-92.0613,1018.05,11111222 
WAVCIS,ioos:station:WAVCIS:CSI03:1,2009-04-08T17:00:00Z,29.4412,-92.0613,1017.67,11111222 
WAVCIS,ioos:station:WAVCIS:CSI03:1,2009-04-08T18:00:00Z,29.4412,-92.0613,1016.76,11111222 
WAVCIS,ioos:station:WAVCIS:CSI03:1,2009-04-08T19:00:00Z,29.4412,-92.0613,1016.16,11111222 
WAVCIS,ioos:station:WAVCIS:CSI03:1,2009-04-08T20:00:00Z,29.4412,-92.0613,1015.2,11111222 
WAVCIS,ioos:station:WAVCIS:CSI03:1,2009-04-08T21:00:00Z,29.4412,-92.0613,1014.47,11111222 
WAVCIS,ioos:station:WAVCIS:CSI03:1,2009-04-08T22:00:00Z,29.4412,-92.0613,1013.57,11111222 
WAVCIS,ioos:station:WAVCIS:CSI03:1,2009-04-08T23:00:00Z,29.4412,-92.0613,1013.09,11111222 
WAVCIS,ioos:station:WAVCIS:CSI03:1,2009-04-09T00:00:00Z,29.4412,-92.0613,1012.63,11111222 
WAVCIS,ioos:station:WAVCIS:CSI03:1,2009-04-09T01:00:00Z,29.4412,-92.0613,1011.96,11111222 
WAVCIS,ioos:station:WAVCIS:CSI03:1,2009-04-09T02:00:00Z,29.4412,-92.0613,1012.34,11111222 
WAVCIS,ioos:station:WAVCIS:CSI03:1,2009-04-09T03:00:00Z,29.4412,-92.0613,1012.49,11111222 
WAVCIS,ioos:station:WAVCIS:CSI03:1,2009-04-09T04:00:00Z,29.4412,-92.0613,1012.73,11111222 
WAVCIS,ioos:station:WAVCIS:CSI03:1,2009-04-09T05:00:00Z,29.4412,-92.0613,1012.38,11111222 
WAVCIS,ioos:station:WAVCIS:CSI03:1,2009-04-09T06:00:00Z,29.4412,-92.0613,1012.11,11111222 
WAVCIS,ioos:station:WAVCIS:CSI03:1,2009-04-09T07:00:00Z,29.4412,-92.0613,1011.7,11111222 
WAVCIS,ioos:station:WAVCIS:CSI03:1,2009-04-09T08:00:00Z,29.4412,-92.0613,1010.75,11111222 
WAVCIS,ioos:station:WAVCIS:CSI03:1,2009-04-09T09:00:00Z,29.4412,-92.0613,1009.96,11111222 
WAVCIS,ioos:station:WAVCIS:CSI03:1,2009-04-09T10:00:00Z,29.4412,-92.0613,1009.73,11111222 
WAVCIS,ioos:station:WAVCIS:CSI03:1,2009-04-09T11:00:00Z,29.4412,-92.0613,1009.74,11111222 
WAVCIS,ioos:station:WAVCIS:CSI03:1,2009-04-09T12:00:00Z,29.4412,-92.0613,1009.95,11111222 
WAVCIS,ioos:station:WAVCIS:CSI03:1,2009-04-09T13:00:00Z,29.4412,-92.0613,1010.37,11111222 
WAVCIS,ioos:station:WAVCIS:CSI03:1,2009-04-09T14:00:00Z,29.4412,-92.0613,1010.25,11111222 
WAVCIS,ioos:station:WAVCIS:CSI03:1,2009-04-09T15:00:00Z,29.4412,-92.0613,1010.71,11111222 
WAVCIS,ioos:station:WAVCIS:CSI03:1,2009-04-09T16:00:00Z,29.4412,-92.0613,1010.57,11111222 
WAVCIS,ioos:station:WAVCIS:CSI03:1,2009-04-09T17:00:00Z,29.4412,-92.0613,1010.38,11111222 
WAVCIS,ioos:station:WAVCIS:CSI03:1,2009-04-09T18:00:00Z,29.4412,-92.0613,1009.46,11111222 
WAVCIS,ioos:station:WAVCIS:CSI03:1,2009-04-09T19:00:00Z,29.4412,-92.0613,1009.27,11111222 
WAVCIS,ioos:station:WAVCIS:CSI03:1,2009-04-09T20:00:00Z,29.4412,-92.0613,1009.04,11111222 
WAVCIS,ioos:station:WAVCIS:CSI03:1,2009-04-09T21:00:00Z,29.4412,-92.0613,1007.48,11111222 
WAVCIS,ioos:station:WAVCIS:CSI03:1,2009-04-09T22:00:00Z,29.4412,-92.0613,1007.67,11111222 
WAVCIS,ioos:station:WAVCIS:CSI03:1,2009-04-09T23:00:00Z,29.4412,-92.0613,1007.18,11111222 
WAVCIS,ioos:station:WAVCIS:CSI03:1,2009-04-10T00:00:00Z,29.4412,-92.0613,1006.725,11111222 
WAVCIS,ioos:station:WAVCIS:CSI03:1,2009-04-10T01:00:00Z,29.4412,-92.0613,1007.78,11111222 
WAVCIS,ioos:station:WAVCIS:CSI03:1,2009-04-10T02:00:00Z,29.4412,-92.0613,1007.84,11111222 
WAVCIS,ioos:station:WAVCIS:CSI03:1,2009-04-10T03:00:00Z,29.4412,-92.0613,1007.55,11111222 
WAVCIS,ioos:station:WAVCIS:CSI03:1,2009-04-10T04:00:00Z,29.4412,-92.0613,1007.79,11111222 
WAVCIS,ioos:station:WAVCIS:CSI03:1,2009-04-10T05:00:00Z,29.4412,-92.0613,1006.956,11111222 
WAVCIS,ioos:station:WAVCIS:CSI03:1,2009-04-10T06:00:00Z,29.4412,-92.0613,1007.24,11111222 
WAVCIS,ioos:station:WAVCIS:CSI03:1,2009-04-10T07:00:00Z,29.4412,-92.0613,1007.79,11111222 
WAVCIS,ioos:station:WAVCIS:CSI03:1,2009-04-10T08:00:00Z,29.4412,-92.0613,1007.7,11111222 
WAVCIS,ioos:station:WAVCIS:CSI03:1,2009-04-10T09:00:00Z,29.4412,-92.0613,1008.46,11111222 
WAVCIS,ioos:station:WAVCIS:CSI03:1,2009-04-10T10:00:00Z,29.4412,-92.0613,1008.83,11111222 
WAVCIS,ioos:station:WAVCIS:CSI03:1,2009-04-10T11:00:00Z,29.4412,-92.0613,1008.89,11111222 
WAVCIS,ioos:station:WAVCIS:CSI03:1,2009-04-10T12:00:00Z,29.4412,-92.0613,1009.83,11111222 
WAVCIS,ioos:station:WAVCIS:CSI03:1,2009-04-10T13:00:00Z,29.4412,-92.0613,1010.27,11111222 
WAVCIS,ioos:station:WAVCIS:CSI03:1,2009-04-10T14:00:00Z,29.4412,-92.0613,1010.93,11111222 
WAVCIS,ioos:station:WAVCIS:CSI03:1,2009-04-10T15:00:00Z,29.4412,-92.0613,1011.79,11111222 
WAVCIS,ioos:station:WAVCIS:CSI03:1,2009-04-10T16:00:00Z,29.4412,-92.0613,1012.25,11111222 
WAVCIS,ioos:station:WAVCIS:CSI03:1,2009-04-10T17:00:00Z,29.4412,-92.0613,1012.39,11111222 
WAVCIS,ioos:station:WAVCIS:CSI03:1,2009-04-10T18:00:00Z,29.4412,-92.0613,1012.35,11111222 
WAVCIS,ioos:station:WAVCIS:CSI03:1,2009-04-10T19:00:00Z,29.4412,-92.0613,1011.83,11111222 
WAVCIS,ioos:station:WAVCIS:CSI03:1,2009-04-10T20:00:00Z,29.4412,-92.0613,1011.39,11111222 
WAVCIS,ioos:station:WAVCIS:CSI03:1,2009-04-10T21:00:00Z,29.4412,-92.0613,1011.14,11111222 
WAVCIS,ioos:station:WAVCIS:CSI03:1,2009-04-10T22:00:00Z,29.4412,-92.0613,1011.11,11111222 
WAVCIS,ioos:station:WAVCIS:CSI03:1,2009-04-10T23:00:00Z,29.4412,-92.0613,1011.67,11111222 
WAVCIS,ioos:station:WAVCIS:CSI03:1,2009-04-11T00:00:00Z,29.4412,-92.0613,1012.08,11111222 
WAVCIS,ioos:station:WAVCIS:CSI03:1,2009-04-11T01:00:00Z,29.4412,-92.0613,1012.44,11111222 
WAVCIS,ioos:station:WAVCIS:CSI03:1,2009-04-11T02:00:00Z,29.4412,-92.0613,1012.65,11111222 
WAVCIS,ioos:station:WAVCIS:CSI03:1,2009-04-11T03:00:00Z,29.4412,-92.0613,1013.87,11111222 
WAVCIS,ioos:station:WAVCIS:CSI03:1,2009-04-11T04:00:00Z,29.4412,-92.0613,1014.39,11111222 
WAVCIS,ioos:station:WAVCIS:CSI03:1,2009-04-11T05:00:00Z,29.4412,-92.0613,1014.43,11111222 
WAVCIS,ioos:station:WAVCIS:CSI03:1,2009-04-11T06:00:00Z,29.4412,-92.0613,1014.72,11111222 
WAVCIS,ioos:station:WAVCIS:CSI03:1,2009-04-11T07:00:00Z,29.4412,-92.0613,1013.96,11111222 
WAVCIS,ioos:station:WAVCIS:CSI03:1,2009-04-11T08:00:00Z,29.4412,-92.0613,1014.89,11111222 
WAVCIS,ioos:station:WAVCIS:CSI03:1,2009-04-11T09:00:00Z,29.4412,-92.0613,1014.41,11111222 
WAVCIS,ioos:station:WAVCIS:CSI03:1,2009-04-11T10:00:00Z,29.4412,-92.0613,1014.09,11111222 
WAVCIS,ioos:station:WAVCIS:CSI03:1,2009-04-11T11:00:00Z,29.4412,-92.0613,1014.71,11111222 
WAVCIS,ioos:station:WAVCIS:CSI03:1,2009-04-11T12:00:00Z,29.4412,-92.0613,1015.6,11111222 
WAVCIS,ioos:station:WAVCIS:CSI03:1,2009-04-11T13:00:00Z,29.4412,-92.0613,1016.16,11111222 
WAVCIS,ioos:station:WAVCIS:CSI03:1,2009-04-11T14:00:00Z,29.4412,-92.0613,1016.6,11111222 
WAVCIS,ioos:station:WAVCIS:CSI03:1,2009-04-11T15:00:00Z,29.4412,-92.0613,1017.1,11111222 
WAVCIS,ioos:station:WAVCIS:CSI03:1,2009-04-11T16:00:00Z,29.4412,-92.0613,1016.95,11111222 
WAVCIS,ioos:station:WAVCIS:CSI03:1,2009-04-11T17:00:00Z,29.4412,-92.0613,1017.2,11111222 
WAVCIS,ioos:station:WAVCIS:CSI03:1,2009-04-11T18:00:00Z,29.4412,-92.0613,1015.93,11111222 
WAVCIS,ioos:station:WAVCIS:CSI03:1,2009-04-11T19:00:00Z,29.4412,-92.0613,1014.79,11111222 
WAVCIS,ioos:station:WAVCIS:CSI03:1,2009-04-11T20:00:00Z,29.4412,-92.0613,1015.03,11111222 
WAVCIS,ioos:station:WAVCIS:CSI03:1,2009-04-11T21:00:00Z,29.4412,-92.0613,1014.39,11111222 